TimeEST,TemperatureF,Dew PointF,Humidity,Sea Level PressureIn,VisibilityMPH,Wind Direction,Wind SpeedMPH,Gust SpeedMPH,PrecipitationIn,Events,Conditions,WindDirDegrees,DateUTC
12:51 AM,66.0,59.0,78,29.62,5.0,South,28.8,44.9,0.00,Rain,Light Rain,180,2012-12-21 05:51:00
1:51 AM,66.0,60.1,81,29.56,5.0,South,27.6,44.9,0.05,Rain,Light Rain,190,2012-12-21 06:51:00
2:12 AM,64.4,60.8,88,29.53,2.5,South,26.5,41.4,0.05,Rain,Rain,180,2012-12-21 07:12:00
2:26 AM,64.4,62.6,94,29.52,1.2,South,27.6,41.4,0.11,Rain,Heavy Rain,190,2012-12-21 07:26:00
2:32 AM,64.4,62.6,94,29.51,1.5,South,32.2,43.7,0.16,Rain,Light Rain,190,2012-12-21 07:32:00
2:34 AM,64.4,62.6,94,29.50,2.0,South,29.9,43.7,0.17,Rain,Light Rain,190,2012-12-21 07:34:00
2:36 AM,64.4,60.8,88,29.50,3.0,South,32.2,44.9,0.17,Rain,Light Rain,180,2012-12-21 07:36:00
2:51 AM,64.0,62.1,93,29.48,3.0,South,31.1,43.7,0.19,Rain,Light Rain,180,2012-12-21 07:51:00
3:13 AM,64.4,62.6,94,29.45,2.5,South,29.9,40.3,0.02,Rain,Rain,180,2012-12-21 08:13:00
3:18 AM,64.4,62.6,94,29.45,1.8,South,29.9,42.6,0.04,Rain,Heavy Rain,180,2012-12-21 08:18:00
3:39 AM,64.4,64.4,100,29.47,1.0,SSW,29.9,41.4,0.22,Rain,Heavy Rain,210,2012-12-21 08:39:00
3:49 AM,64.4,64.4,100,29.46,2.0,SW,24.2,46.0,0.26,Rain,Light Rain,220,2012-12-21 08:49:00
3:51 AM,64.9,64.0,97,29.47,2.5,SW,25.3,44.9,0.26,Rain,Light Rain,220,2012-12-21 08:51:00
3:57 AM,64.4,62.6,94,29.46,3.0,SW,23.0,36.8,0.00,,Overcast,220,2012-12-21 08:57:00
4:11 AM,64.4,62.6,94,29.46,2.5,SW,18.4,34.5,0.00,Rain,Light Rain,230,2012-12-21 09:11:00
4:19 AM,62.6,60.8,94,29.46,3.0,WSW,17.3,28.8,0.00,,Overcast,240,2012-12-21 09:19:00
4:44 AM,62.6,60.8,94,29.48,3.0,WSW,17.3,23.0,0.00,,Overcast,250,2012-12-21 09:44:00
4:51 AM,61.0,60.1,97,29.49,2.5,West,18.4,29.9,0.00,,Overcast,260,2012-12-21 09:51:00
4:58 AM,59.0,55.4,88,29.49,4.0,West,19.6,29.9,N/A,,Overcast,260,2012-12-21 09:58:00
5:23 AM,55.4,46.4,72,29.50,10.0,West,21.9,36.8,N/A,,Overcast,260,2012-12-21 10:23:00
5:51 AM,54.0,46.0,75,29.52,10.0,West,18.4,33.4,N/A,,Partly Cloudy,270,2012-12-21 10:51:00
6:51 AM,48.9,41.0,74,29.56,10.0,WSW,21.9,38.0,N/A,,Partly Cloudy,250,2012-12-21 11:51:00
7:51 AM,46.9,37.0,68,29.60,10.0,West,20.7,33.4,N/A,,Clear,270,2012-12-21 12:51:00
8:51 AM,48.0,36.0,63,29.62,10.0,West,21.9,33.4,N/A,,Clear,270,2012-12-21 13:51:00
9:51 AM,48.9,35.1,59,29.63,10.0,West,17.3,29.9,N/A,,Clear,270,2012-12-21 14:51:00
10:51 AM,50.0,33.1,52,29.62,10.0,West,20.7,31.1,N/A,,Clear,270,2012-12-21 15:51:00
11:51 AM,50.0,34.0,54,29.60,10.0,West,15.0,29.9,N/A,,Partly Cloudy,260,2012-12-21 16:51:00
12:51 PM,50.0,33.1,52,29.58,10.0,West,15.0,26.5,N/A,,Mostly Cloudy,280,2012-12-21 17:51:00
1:51 PM,48.9,32.0,52,29.57,10.0,West,17.3,29.9,N/A,,Mostly Cloudy,280,2012-12-21 18:51:00
2:51 PM,48.0,32.0,54,29.58,10.0,West,21.9,39.1,N/A,,Overcast,280,2012-12-21 19:51:00
3:51 PM,46.9,30.0,52,29.60,10.0,West,16.1,34.5,N/A,,Overcast,280,2012-12-21 20:51:00
4:51 PM,46.9,28.9,50,29.62,10.0,West,19.6,33.4,N/A,,Overcast,280,2012-12-21 21:51:00
5:51 PM,46.9,28.9,50,29.65,10.0,West,18.4,34.5,N/A,,Overcast,280,2012-12-21 22:51:00
6:51 PM,46.9,28.0,48,29.67,10.0,WNW,20.7,32.2,N/A,,Mostly Cloudy,290,2012-12-21 23:51:00
7:51 PM,46.0,27.0,47,29.68,10.0,WNW,20.7,36.8,N/A,,Scattered Clouds,300,2012-12-22 00:51:00
8:51 PM,45.0,28.0,52,29.69,10.0,West,19.6,41.4,N/A,,Partly Cloudy,280,2012-12-22 01:51:00
9:51 PM,44.1,25.0,47,29.71,10.0,WNW,20.7,33.4,N/A,,Scattered Clouds,300,2012-12-22 02:51:00
10:51 PM,43.0,24.1,47,29.73,10.0,WNW,19.6,40.3,N/A,,Clear,290,2012-12-22 03:51:00
11:51 PM,42.1,25.0,51,29.74,10.0,WNW,20.7,34.5,N/A,,Partly Cloudy,300,2012-12-22 04:51:00